Starlink 11101

operational
NORAD ID: 59715 Int'l Des: 2024-088 Owner: SPXS Country: US Constellation: starlink
LEOCIRCULAR

Über Starlink 11101

Beschreibung wird geladen...

Live-Position

3D-Globus wird geladen...

Nächste Überflüge

Höhenverlauf

Altitude vs Time

uPlot chart will show altitude changes over time

Zweizeiliger Elementsatz

1 59715U 24088H 25258.79117156 .00001716 00000-0 19006-4 0 9993
2 59715 53.1592 108.3703 0001008 76.4234 283.6896 15.69726468 78800
Epoch: 15. Sept. 2025 • Age: 15 hours

Aktueller Status

Höhe 361.3 km
Geschwindigkeit 7.69 km/s
Subsatellitenpunkt -3.43°S, 149.53°E
Startdatum 10. Mai 2024
Alter 1.3 years
Typ internet

Technische Details

Klassifizierung Payload
Masse 960.00 kg
Trockenmasse 910.00 kg
Gesamtmasse 960.00 kg
Länge 0.30 m
Durchmesser 4.10 m
Spannweite 29.00 m
Form Box + pan
Hersteller SPXS
Bus-Typ Starlink V2MD
Phasenstatus In Orbit
Besitzer/Staat SPXS/US

Große Konstellationen

Loading constellations...